Flag for Egypt Weather past 2 weeks in Al Jizah, Egypt

Now
72 °F

Partly sunny.


Feels Like: 76 °F
Forecast: 52 / 71 °F
Wind: 7 mph from West

Location: Cairo Airport

Current Time: Mar 3, 2015 at 2:05:52 PM

Latest Report: Mar 3, 2015 at 1:30 PM


Visibility: N/A

Pressure: 30.12 "Hg

Humidity: 29%

Dew point: 37 °F

Location of Al JizahLocation

Historic Weather in Al Jizah — Graph

°F

Al Jizah temperature yesterday

Maximum temperature yesterday: 72 °F (at 3:00 PM)
Minimum temperature yesterday: 52 °F (at 2:30 AM)
Average temperature yesterday: 60 °F

Past Weeks' High & Low Weather Summary

 TemperatureHumidityPressure
High84 °F (Feb 27, 3:30 PM)94% (Feb 17, 6:30 AM)30.18 "Hg (Feb 17, 6:30 AM)
Low43 °F (Feb 20, 2:30 AM)11% (Feb 27, 5:00 PM)29.77 "Hg (Feb 24, 3:30 AM)
Average59 °F58%30.04 "Hg
* Reported Feb 16 1:00 PM — Mar 3 1:00 PM, Al Jizah, Weather by CustomWeather, © 2015

Note: Actual official high and low records may vary slightly from our data, if they occured in-between our weather recording intervals... More about our weather records

Advertising

Al Jizah weather history for previous 24 hours

 ConditionsComfort  
Time TempWeatherWind HumidityBarometerVisibility
1:00 PM
Tue, Mar 3
72 °FSunny.6 mph31%30.12 "Hg10 mi
12:30 PM72 °FSunny.6 mph31%30.15 "Hg10 mi
12:00 PM70 °FSunny.5 mph31%30.15 "Hg10 mi
11:30 AM70 °FClear.3 mph33%30.15 "Hg4 mi
11:00 AM68 °FHaze.3 mph38%30.15 "Hg2 mi
10:30 AM66 °FHaze.3 mph40%30.18 "Hg2 mi
10:00 AM64 °FHaze.3 mph46%30.18 "Hg2 mi
9:30 AM63 °FHaze.5 mph49%30.18 "Hg2 mi
9:00 AM63 °FHaze.3 mph52%30.18 "Hg2 mi
8:30 AM63 °FHaze.No wind49%30.15 "Hg2 mi
8:00 AM61 °FClear.No wind45%30.15 "Hg4 mi
7:30 AM59 °FSunny.No wind48%30.15 "Hg10 mi
6:00 AM57 °FClear.No wind41%30.12 "Hg10 mi
5:30 AM57 °FClear.No wind39%30.09 "Hg10 mi
5:00 AM59 °FClear.No wind39%30.12 "Hg10 mi
4:00 AM59 °FClear.No wind42%30.09 "Hg10 mi
2:30 AM59 °FClear.6 mph42%30.12 "Hg10 mi
2:00 AM61 °FClear.6 mph45%30.15 "Hg10 mi
1:30 AM61 °FClear.6 mph45%30.12 "Hg10 mi
1:00 AM59 °FClear.6 mph51%30.15 "Hg10 mi
12:30 AM59 °FClear.5 mph51%30.15 "Hg10 mi
12:00 AM59 °FClear.3 mph51%30.15 "Hg10 mi
11:30 PM
Mon, Mar 2
61 °FClear.5 mph48%30.15 "Hg10 mi
11:00 PM61 °FClear.7 mph48%30.15 "Hg10 mi
10:30 PM61 °FClear.3 mph48%30.12 "Hg10 mi
10:00 PM61 °FClear.3 mph48%30.15 "Hg10 mi
9:30 PM63 °FClear.5 mph45%30.12 "Hg10 mi
9:00 PM63 °FClear.5 mph45%30.12 "Hg10 mi
8:30 PM64 °FClear.6 mph43%30.12 "Hg10 mi
8:00 PM64 °FClear.5 mph43%30.15 "Hg10 mi
7:00 PM66 °FClear.6 mph37%30.12 "Hg10 mi
6:30 PM66 °FClear.8 mph37%30.12 "Hg10 mi
6:00 PM66 °FClear.7 mph37%30.09 "Hg10 mi
5:30 PM68 °FSunny.9 mph33%30.09 "Hg10 mi
5:00 PM68 °FSunny.10 mph35%30.09 "Hg10 mi
4:30 PM68 °FSunny.8 mph33%30.09 "Hg10 mi
4:00 PM68 °FSunny.8 mph33%30.09 "Hg10 mi
3:30 PM70 °FSunny.10 mph31%30.09 "Hg10 mi
3:00 PM72 °FSunny.6 mph29%30.09 "Hg10 mi
2:30 PM70 °FSunny.7 mph29%30.09 "Hg10 mi
Weather by CustomWeather, © 2015

See weather overviewHow to use our weather pages